Imperial, NE

4:57 AM MDT on April 26, 2017 (GMT -0600)
Imperial Municipal

Weather History for KIML - February, 2015

Change the Weather History Date:

Thursday, February 19, 2015

  Actual Average Record
Temperature  
Mean Temperature 34 °F 32 °F  
Max Temperature 51 °F 45 °F 75 °F (1930)
Min Temperature 16 °F 19 °F -12 °F (1929)
Degree Days  
Heating Degree Days 31 33  
Month to date heating degree days 541 656  
Cooling Degree Days 0 0  
Month to date cooling degree days 0 0  
Year to date cooling degree days 0 0  
Moisture  
Dew Point 16 °F    
Average Humidity 55    
Maximum Humidity 80    
Minimum Humidity 30    
Precipitation  
Precipitation 0.00 in 0.01 in 0.60 in (1927)
Snow  
Snow 0.00 in - - ()
Snow Depth -    
Sea Level Pressure  
Sea Level Pressure 30.06 in    
Wind  
Wind Speed 8 mph (ESE)    
Max Wind Speed 15 mph    
Max Gust Speed 17 mph    
Visibility 10 miles    
Events      
T = Trace of Precipitation, MM = Missing Value Source: NWS Daily Summary

Daily Weather History Graph

Daily Weather History Graph

Search for Another Location

Airport or City:

Trip Planner

Search our weather history database for the weather conditions in past years. The results will help you decide how hot, cold, wet, or windy it might be!

Date:

Astronomy

Feb. 19, 2015 Rise Set
Actual Time 6:35 AM MST 5:26 PM MST
Civil Twilight 6:07 AM MST 5:53 PM MST
Nautical Twilight 5:35 AM MST 6:25 PM MST
Astronomical Twilight 5:03 AM MST 6:57 PM MST
Moon 6:48 AM MST (2/19) 6:42 PM MST (2/19)
Length of Visible Light 11h 46m
Length of Day
10h 51m
New Moon, 1% of the Moon is Illuminated
Feb 19
New Moon
Feb 25
First Quarter
Mar 5
Full
Mar 13
Last Quarter
Mar 20
New

Hourly Weather History & Observations

Time (MST) Temp. Windchill Dew Point Humidity Pressure Visibility Wind Dir Wind Speed Gust Speed Precip Events Conditions
12:53 AM 21.0 °F - 12.9 °F 71% 30.25 in 10.0 mi North - - N/A   Unknown
1:53 AM 21.0 °F - 14.0 °F 74% 30.22 in 10.0 mi North - - N/A   Unknown
2:53 AM 19.0 °F - 12.0 °F 74% 30.19 in 10.0 mi North - - N/A   Unknown
3:53 AM 17.1 °F - 12.0 °F 81% 30.17 in 10.0 mi North - - N/A   Unknown
4:53 AM 16.0 °F - 10.9 °F 81% 30.16 in 10.0 mi North - - N/A   Unknown
5:53 AM 16.0 °F - 10.9 °F 81% 30.14 in 10.0 mi North - - N/A   Unknown
6:53 AM 17.1 °F - 10.9 °F 77% 30.12 in 10.0 mi North - - N/A   Unknown
7:53 AM 18.0 °F - 12.0 °F 78% 30.14 in 10.0 mi North - - N/A   Unknown
8:53 AM 21.9 °F - 14.0 °F 72% 30.12 in 10.0 mi North - - N/A   Unknown
9:53 AM 26.6 °F - 15.8 °F 64% 30.01 in 10.0 mi North - - N/A   Clear
10:53 AM 30.9 °F 25.2 °F 17.1 °F 57% 30.11 in 10.0 mi East 5.8 mph - N/A   Unknown
11:53 AM 37.0 °F 33.3 °F 18.0 °F 46% 30.08 in 10.0 mi Variable 4.6 mph - N/A   Unknown
12:53 PM 43.0 °F 40.3 °F 19.0 °F 38% 30.02 in 10.0 mi SE 4.6 mph - N/A   Unknown
1:53 PM 46.9 °F - 21.0 °F 36% 29.97 in 10.0 mi ESE 8.1 mph - N/A   Unknown
2:53 PM 51.1 °F - 21.0 °F 31% 29.95 in 10.0 mi ESE 9.2 mph - N/A   Unknown
3:53 PM 48.9 °F - 19.9 °F 32% 29.96 in 10.0 mi ESE 10.4 mph - N/A   Unknown
4:53 PM 45.0 °F 38.9 °F 19.9 °F 37% 29.95 in 10.0 mi SE 12.7 mph - N/A   Unknown
5:53 PM 35.1 °F 28.6 °F 19.0 °F 52% 29.98 in 10.0 mi SSE 8.1 mph - N/A   Unknown
6:53 PM 30.0 °F 22.4 °F 18.0 °F 61% 30.00 in 10.0 mi SE 8.1 mph - N/A   Unknown
7:53 PM 30.0 °F 25.2 °F 18.0 °F 61% 30.01 in 10.0 mi East 4.6 mph - N/A   Unknown
8:53 PM 28.9 °F 22.8 °F 18.0 °F 64% 30.00 in 10.0 mi ESE 5.8 mph - N/A   Unknown
9:53 PM 26.1 °F 17.6 °F 16.0 °F 66% 29.99 in 10.0 mi SE 8.1 mph - N/A   Unknown
10:53 PM 21.9 °F 17.2 °F 15.1 °F 75% 29.96 in 10.0 mi ESE 3.5 mph - N/A   Unknown
11:53 PM 21.9 °F 14.5 °F 15.1 °F 75% 29.94 in 10.0 mi NNE 5.8 mph - N/A   Unknown